Weather History for KAXX - May, 2013

Change the Weather History Date:

Saturday, May 11, 2013

  Actual Average (KSKX) Record (KSKX)
Temperature  
Mean Temperature 39 °F -  
Max Temperature 55 °F 68 °F 77 °F (2000)
Min Temperature 23 °F 33 °F 19 °F (2003)
Degree Days  
Heating Degree Days 26    
Moisture  
Dew Point 28 °F    
Average Humidity 67    
Maximum Humidity 93    
Minimum Humidity 29    
Precipitation  
Precipitation 0.00 in - - ()
Sea Level Pressure  
Sea Level Pressure 30.47 in    
Wind  
Wind Speed 4 mph (East)    
Max Wind Speed 23 mph    
Max Gust Speed 32 mph    
Visibility 10 miles    
Events Rain    
Averages and records for this station are not official NWS values.
T = Trace of Precipitation, MM = Missing Value Source: NWS Daily Summary

Daily Weather History Graph

Daily Weather History Graph

Search for Another Location

Airport or City:

Trip Planner

Search our weather history database for the weather conditions in past years. The results will help you decide how hot, cold, wet, or windy it might be!

Date:

Astronomy

May. 11, 2013 Rise Set
Actual Time 5:57 AM MDT 7:57 PM MDT
Civil Twilight 5:29 AM MDT 8:26 PM MDT
Nautical Twilight 4:54 AM MDT 9:01 PM MDT
Astronomical Twilight 4:17 AM MDT 9:38 PM MDT
Moon 7:08 AM MDT (5/11) 9:39 PM MDT (5/11)
Length of Visible Light 14h 57m
Length of Day
14h 00m
Waxing Crescent, 3% of the Moon is Illuminated
May 11
Waxing Crescent
May 17
First Quarter
May 24
Full
May 31
Last Quarter
Jun 8
New

Hourly Weather History & Observations

Time (MDT) Temp. Windchill Dew Point Humidity Pressure Visibility Wind Dir Wind Speed Gust Speed Precip Events Conditions
12:15 AM 31.8 °F - 28.0 °F 86% 30.44 in 10.0 mi Calm Calm - N/A   Scattered Clouds
12:35 AM 31.8 °F - 27.5 °F 84% 30.44 in 10.0 mi Calm Calm - N/A   Scattered Clouds
12:55 AM 30.2 °F 26.7 °F 27.7 °F 90% 30.43 in 10.0 mi SW 3.5 mph - N/A   Clear
1:15 AM 28.4 °F - 25.3 °F 88% 30.43 in 10.0 mi Calm Calm - N/A   Clear
1:35 AM 27.1 °F - 24.6 °F 90% 30.43 in 10.0 mi Calm Calm - N/A   Clear
1:55 AM 25.2 °F - 23.0 °F 91% 30.43 in 10.0 mi Calm Calm - N/A   Clear
2:15 AM 25.3 °F - 23.2 °F 91% 30.43 in 10.0 mi Calm Calm - N/A   Clear
2:35 AM 26.8 °F 20.2 °F 24.4 °F 91% 30.43 in 10.0 mi South 5.8 mph - N/A   Clear
2:55 AM 25.0 °F - 22.8 °F 91% 30.44 in 10.0 mi Calm Calm - N/A   Scattered Clouds
3:15 AM 25.9 °F - 23.5 °F 91% 30.44 in 10.0 mi Calm Calm - N/A   Mostly Cloudy
3:35 AM 23.7 °F 19.3 °F 21.6 °F 91% 30.44 in 10.0 mi South 3.5 mph - N/A   Scattered Clouds
3:55 AM 23.9 °F - 22.1 °F 93% 30.45 in 10.0 mi Calm Calm - N/A   Clear
4:15 AM 24.4 °F - 22.6 °F 93% 30.45 in 10.0 mi Calm Calm - N/A   Scattered Clouds
4:35 AM 26.4 °F - 24.6 °F 93% 30.45 in 10.0 mi Calm Calm - N/A   Mostly Cloudy
4:55 AM 26.1 °F - 24.1 °F 92% 30.45 in 10.0 mi Calm Calm - N/A   Overcast
5:15 AM 27.9 °F - 25.2 °F 90% 30.45 in 10.0 mi Calm Calm - N/A   Overcast
5:35 AM 27.3 °F - 24.8 °F 90% 30.45 in 10.0 mi Calm Calm - N/A   Mostly Cloudy
5:55 AM 25.7 °F - 23.7 °F 92% 30.46 in 10.0 mi Calm Calm - N/A   Overcast
6:15 AM 26.4 °F - 23.9 °F 90% 30.47 in 10.0 mi Calm Calm - N/A   Mostly Cloudy
6:35 AM 27.0 °F 21.6 °F 24.3 °F 90% 30.47 in 10.0 mi SSE 4.6 mph - N/A   Mostly Cloudy
6:55 AM 29.3 °F - 25.9 °F 87% 30.48 in 10.0 mi Calm Calm - N/A   Mostly Cloudy
7:15 AM 30.6 °F - 26.6 °F 85% 30.48 in 10.0 mi Calm Calm - N/A   Scattered Clouds
7:35 AM 32.0 °F - 27.9 °F 85% 30.48 in 10.0 mi Calm Calm - N/A   Scattered Clouds
7:55 AM 35.2 °F - 28.0 °F 75% 30.47 in 10.0 mi Calm Calm - N/A   Clear
8:15 AM 36.9 °F - 28.8 °F 72% 30.48 in 10.0 mi Calm Calm - N/A   Scattered Clouds
8:35 AM 40.5 °F 38.4 °F 29.1 °F 64% 30.48 in 10.0 mi NNE 3.5 mph - N/A   Mostly Cloudy
8:55 AM 43.3 °F 41.7 °F 30.0 °F 59% 30.48 in 10.0 mi North 3.5 mph - N/A   Mostly Cloudy
9:15 AM 46.2 °F 45.0 °F 29.1 °F 51% 30.48 in 10.0 mi NE 3.5 mph - N/A   Mostly Cloudy
9:35 AM 44.6 °F 37.4 °F 28.4 °F 53% 30.49 in 10.0 mi North 16.1 mph 29.9 mph N/A   Overcast
9:55 AM 44.1 °F 36.2 °F 32.0 °F 63% 30.50 in 10.0 mi ENE 18.4 mph 29.9 mph N/A Rain Light Rain
10:15 AM 43.0 °F 41.3 °F 32.9 °F 68% 30.49 in 10.0 mi NE 3.5 mph - N/A   Mostly Cloudy
10:35 AM 44.1 °F 35.2 °F 30.2 °F 58% 30.51 in 10.0 mi NNE 23.0 mph 32.2 mph N/A   Mostly Cloudy
10:55 AM 44.2 °F - 29.3 °F 56% 30.50 in 10.0 mi Calm Calm - N/A   Overcast
11:15 AM 48.4 °F - 27.9 °F 45% 30.49 in 10.0 mi North 13.8 mph 23.0 mph N/A   Overcast
11:35 AM 48.7 °F - 28.2 °F 45% 30.49 in 10.0 mi North 11.5 mph 18.4 mph N/A   Overcast
11:55 AM 50.4 °F - 27.0 °F 40% 30.49 in 10.0 mi ENE 9.2 mph 18.4 mph N/A   Overcast
12:15 PM 49.5 °F - 28.8 °F 45% 30.50 in 10.0 mi East 23.0 mph 31.1 mph N/A   Overcast
12:35 PM 48.4 °F - 30.6 °F 50% 30.50 in 10.0 mi East 11.5 mph - N/A   Mostly Cloudy
12:55 PM 52.3 °F - 27.7 °F 39% 30.49 in 10.0 mi East 9.2 mph 17.3 mph N/A   Overcast
1:15 PM 47.7 °F - 31.6 °F 54% 30.50 in 10.0 mi East 12.7 mph 21.9 mph N/A   Overcast
1:35 PM 50.5 °F - 27.1 °F 40% 30.50 in 10.0 mi East 8.1 mph - N/A   Overcast
1:55 PM 51.8 °F - 27.1 °F 39% 30.49 in 10.0 mi ENE 11.5 mph - N/A   Light Drizzle
2:15 PM 52.3 °F - 26.2 °F 36% 30.49 in 10.0 mi SSE 3.5 mph - N/A   Scattered Clouds
2:35 PM 53.6 °F - 24.3 °F 32% 30.48 in 10.0 mi NE 10.4 mph 17.3 mph N/A   Mostly Cloudy
2:55 PM 54.5 °F - 26.8 °F 34% 30.48 in 10.0 mi East 11.5 mph - N/A   Scattered Clouds
3:15 PM 55.9 °F - 24.1 °F 29% 30.47 in 10.0 mi SE 12.7 mph 16.1 mph N/A   Clear
3:35 PM 54.7 °F - 23.7 °F 30% 30.46 in 10.0 mi SE 4.6 mph - N/A   Scattered Clouds
3:55 PM 55.0 °F - 24.6 °F 31% 30.45 in 10.0 mi East 8.1 mph - N/A   Overcast
4:15 PM 53.6 °F - 24.3 °F 32% 30.45 in 10.0 mi East 10.4 mph - N/A   Overcast
4:35 PM 54.3 °F - 24.6 °F 32% 30.44 in 10.0 mi SSW 4.6 mph - N/A   Scattered Clouds
4:55 PM 55.8 °F - 24.6 °F 30% 30.44 in 10.0 mi ENE 13.8 mph 24.2 mph N/A   Scattered Clouds
5:15 PM 51.3 °F - 29.7 °F 44% 30.47 in 10.0 mi NNE 13.8 mph 25.3 mph N/A   Overcast
5:35 PM 47.1 °F - 31.5 °F 55% 30.47 in 10.0 mi North 18.4 mph 25.3 mph N/A   Overcast
5:55 PM 48.6 °F - 31.8 °F 52% 30.47 in 10.0 mi North 10.4 mph - N/A   Overcast
6:15 PM 50.4 °F - 33.8 °F 53% 30.47 in 10.0 mi ESE 16.1 mph 19.6 mph N/A   Mostly Cloudy
6:35 PM 49.1 °F - 33.3 °F 54% 30.47 in 10.0 mi SSE 10.4 mph - N/A   Scattered Clouds
6:55 PM 48.6 °F - 32.9 °F 55% 30.47 in 10.0 mi SSE 9.2 mph - N/A   Clear
7:15 PM 47.5 °F - 32.7 °F 57% 30.47 in 10.0 mi South 6.9 mph - N/A   Clear
7:35 PM 46.0 °F 41.9 °F 32.5 °F 59% 30.47 in 10.0 mi SSE 8.1 mph - N/A   Clear
7:55 PM 41.7 °F 38.0 °F 33.4 °F 72% 30.47 in 10.0 mi SSW 5.8 mph - N/A   Clear
8:15 PM 40.3 °F 38.2 °F 32.7 °F 74% 30.47 in 10.0 mi SW 3.5 mph - N/A   Clear
8:35 PM 41.2 °F - 33.6 °F 74% 30.48 in 10.0 mi Calm Calm - N/A   Clear
8:55 PM 40.1 °F - 33.1 °F 76% 30.49 in 10.0 mi Calm Calm - N/A   Mostly Cloudy
9:15 PM 38.8 °F 34.6 °F 32.2 °F 77% 30.49 in 10.0 mi SE 5.8 mph - N/A   Overcast
9:35 PM 39.2 °F - 32.7 °F 78% 30.49 in 10.0 mi Calm Calm - N/A   Overcast
9:55 PM 37.2 °F - 32.0 °F 81% 30.51 in 10.0 mi Calm Calm - N/A   Overcast
10:15 PM 40.1 °F - 32.7 °F 75% 30.51 in 10.0 mi Calm Calm - N/A   Overcast
10:35 PM 40.3 °F - 32.9 °F 75% 30.51 in 10.0 mi Calm Calm - N/A   Overcast
10:55 PM 37.0 °F - 31.6 °F 81% 30.51 in 10.0 mi Calm Calm - N/A   Scattered Clouds
11:15 PM 36.5 °F - 31.3 °F 81% 30.51 in 10.0 mi Calm Calm - N/A   Mostly Cloudy
11:35 PM 36.3 °F - 31.5 °F 83% 30.51 in 10.0 mi Calm Calm - N/A   Scattered Clouds
11:55 PM 34.0 °F - 30.0 °F 85% 30.50 in 10.0 mi Calm Calm - N/A   Scattered Clouds